Tracking 31027 objects as of 19-Jul-2025
HD Live streaming from Space Station
objects crossing your sky now

STARLINK-5201

Track STARLINK-5201 now!
10-day predictions
STARLINK-5201 is classified as:


NORAD ID: 54076
Int'l Code: 2022-136AB
Perigee: 546.0 km
Apogee: 547.7 km
Inclination: 53.2 °
Period: 95.4 minutes
Semi major axis: 6917 km
RCS: Unknown
Launch date: October 20, 2022
Source: United States (US)
Launch site: AIR FORCE EASTERN TEST RANGE (AFETR)
Your satellite tracking list
STARLINK-3674
Track 1 satellite(s)




NASA's NSSDC Master Catalog

Two Line Element Set (TLE):
1 54076U 22136AB  25199.61543198  .00000294  00000-0  36575-4 0  9994
2 54076  53.2181 315.1246 0001231  90.9671 269.1462 15.08838380151501
Source of the keplerian elements: AFSPC